Overview Statistics Trail Chart Weather Telemetry Raw packets
 

This is the latest recevied weather packets stored in our database for station/object OE5MMP-13. If no packets are shown the sender has not sent any weather packets the latest 10 day(s).

<< 37 38 39 40 41 42 43 >>
Time Temp. Humidity Pressure Rain* Wind** Luminosity Snow
1788119008 18.89° C 73% 1016.7 hPa 0 mm - 0 W/m² -
1788118407 19.44° C 73% 1016.7 hPa 0 mm - 0 W/m² -
1788117807 19.44° C 74% 1016.6 hPa 0 mm - 0 W/m² -
1788117207 19.44° C 73% 1016.6 hPa 0 mm - 0 W/m² -
1788116607 20° C 72% 1016.6 hPa 0 mm - 0 W/m² -
1788116007 20° C 72% 1016.4 hPa 0 mm - 0 W/m² -
1788115407 20° C 72% 1016.4 hPa 0 mm - 0 W/m² -
1788114807 20° C 71% 1016.2 hPa 0 mm - 0 W/m² -
1788114207 20.56° C 71% 1016.1 hPa 0 mm - 0 W/m² -
1788113607 20.56° C 70% 1016 hPa 0 mm - 0 W/m² -
1788113007 21.11° C 70% 1016 hPa 0 mm - 0 W/m² -
1788112407 21.67° C 67% 1016 hPa 0 mm - 5 W/m² -
1788111807 22.78° C 65% 1016 hPa 0 mm - 10 W/m² -
1788111207 23.33° C 64% 1015.9 hPa 0 mm - 13 W/m² -
1788110607 23.33° C 61% 1015.9 hPa 0 mm - 21 W/m² -
1788110007 23.89° C 60% 1015.8 hPa 0 mm - 36 W/m² -
1788109407 24.44° C 60% 1015.9 hPa 0 mm - 55 W/m² -
1788108807 24.44° C 60% 1016 hPa 0 mm - 95 W/m² -
1788108206 24.44° C 59% 1016 hPa 0 mm - 56 W/m² -
1788107607 25.56° C 56% 1016.1 hPa 0 mm - 84 W/m² -
1788107007 25.56° C 58% 1016.3 hPa 0 mm - 132 W/m² -
1788106407 26.11° C 57% 1016.3 hPa 0 mm - 136 W/m² -
1788105807 26.11° C 54% 1016.5 hPa 0 mm - 131 W/m² -
1788105207 26.11° C 53% 1016.5 hPa 0 mm - 174 W/m² -
1788104607 26.67° C 53% 1016.6 hPa 0 mm - 196 W/m² -

* Rain latest hour (hover to see other rain measurements)
** Current wind speed in m/s (hover to see current wind gust speed)